Data supplied by UK-AIR on 1/4/2016
All Data GMT hour ending 
Status: R =Ratified P=Provisional,P*=As supplied
,,Leominster,,,,,,,,,,,,,,,,,,,,,,,
Date,time,"Nitric oxide",status,unit,"Nitrogen dioxide",status,unit,"Nitrogen oxides as nitrogen dioxide",status,unit,"Ozone",status,unit
 
01-01-2015,01:00,0.39706,R,ugm-3,5.44234,R,ugm-3,6.05115,R,ugm-3,56.74440,R,ugm-3
01-01-2015,02:00,0.73715,R,ugm-3,5.17969,R,ugm-3,6.30998,R,ugm-3,56.61136,R,ugm-3
01-01-2015,03:00,0.55287,R,ugm-3,4.40401,R,ugm-3,5.25173,R,ugm-3,55.38068,R,ugm-3
01-01-2015,04:00,0.51046,R,ugm-3,4.72770,R,ugm-3,5.51039,R,ugm-3,51.33938,R,ugm-3
01-01-2015,05:00,0.38292,R,ugm-3,4.98876,R,ugm-3,5.57589,R,ugm-3,48.74497,R,ugm-3
01-01-2015,06:00,0.46774,R,ugm-3,3.88572,R,ugm-3,4.60291,R,ugm-3,54.83186,R,ugm-3
01-01-2015,07:00,0.46774,R,ugm-3,4.72866,R,ugm-3,5.44584,R,ugm-3,56.42842,R,ugm-3
01-01-2015,08:00,0.46774,R,ugm-3,5.05283,R,ugm-3,5.77001,R,ugm-3,55.82971,R,ugm-3
01-01-2015,09:00,0.42502,R,ugm-3,5.18335,R,ugm-3,5.83504,R,ugm-3,53.73422,R,ugm-3
01-01-2015,10:00,0.51046,R,ugm-3,4.72818,R,ugm-3,5.51087,R,ugm-3,59.52175,R,ugm-3
01-01-2015,11:00,0.38292,R,ugm-3,3.23786,R,ugm-3,3.82500,R,ugm-3,77.08391,R,ugm-3
01-01-2015,12:00,0.51046,R,ugm-3,3.36696,R,ugm-3,4.14965,R,ugm-3,76.88434,R,ugm-3
01-01-2015,13:00,0.46805,R,ugm-3,3.36696,R,ugm-3,4.08462,R,ugm-3,73.74112,R,ugm-3
01-01-2015,14:00,0.55287,R,ugm-3,3.56108,R,ugm-3,4.40879,R,ugm-3,70.99703,R,ugm-3
01-01-2015,15:00,0.51015,R,ugm-3,3.95075,R,ugm-3,4.73296,R,ugm-3,67.85380,R,ugm-3
01-01-2015,16:00,0.46774,R,ugm-3,4.01577,R,ugm-3,4.73296,R,ugm-3,64.36133,R,ugm-3
01-01-2015,17:00,0.38292,R,ugm-3,3.95123,R,ugm-3,4.53836,R,ugm-3,67.30498,R,ugm-3
01-01-2015,18:00,0.51015,R,ugm-3,3.82118,R,ugm-3,4.60339,R,ugm-3,65.55875,R,ugm-3
01-01-2015,19:00,0.38292,R,ugm-3,4.08080,R,ugm-3,4.66793,R,ugm-3,65.45896,R,ugm-3
01-01-2015,20:00,0.42533,R,ugm-3,3.56251,R,ugm-3,4.21467,R,ugm-3,69.30068,R,ugm-3
01-01-2015,21:00,0.46774,R,ugm-3,3.49748,R,ugm-3,4.21467,R,ugm-3,68.30283,R,ugm-3
01-01-2015,22:00,0.42533,R,ugm-3,2.97776,R,ugm-3,3.62993,R,ugm-3,72.24434,R,ugm-3
01-01-2015,23:00,0.46774,R,ugm-3,2.78364,R,ugm-3,3.50083,R,ugm-3,71.54585,R,ugm-3
01-01-2015,24:00,0.29779,R,ugm-3,2.84963,R,ugm-3,3.30623,R,ugm-3,69.20090,R,ugm-3
02-01-2015,01:00,0.39706,R,ugm-3,3.01920,R,ugm-3,3.62801,R,ugm-3,67.85380,R,ugm-3
02-01-2015,02:00,0.56669,R,ugm-3,3.01793,R,ugm-3,3.88684,R,ugm-3,71.44606,R,ugm-3
02-01-2015,03:00,0.38292,R,ugm-3,2.65264,R,ugm-3,3.23978,R,ugm-3,76.48520,R,ugm-3
02-01-2015,04:00,0.46774,R,ugm-3,2.52211,R,ugm-3,3.23930,R,ugm-3,76.88434,R,ugm-3
02-01-2015,05:00,0.46774,R,ugm-3,2.65168,R,ugm-3,3.36887,R,ugm-3,77.13381,R,ugm-3
02-01-2015,06:00,0.42533,R,ugm-3,2.52259,R,ugm-3,3.17475,R,ugm-3,76.88434,R,ugm-3
02-01-2015,07:00,0.46774,R,ugm-3,3.49366,R,ugm-3,4.21085,R,ugm-3,75.98628,R,ugm-3
02-01-2015,08:00,0.38292,R,ugm-3,3.94836,R,ugm-3,4.53549,R,ugm-3,72.84305,R,ugm-3
02-01-2015,09:00,0.38292,R,ugm-3,3.42911,R,ugm-3,4.01625,R,ugm-3,72.14456,R,ugm-3
02-01-2015,10:00,0.38292,R,ugm-3,3.29906,R,ugm-3,3.88620,R,ugm-3,70.29853,R,ugm-3
02-01-2015,11:00,0.51015,R,ugm-3,3.30002,R,ugm-3,4.08223,R,ugm-3,71.64563,R,ugm-3
02-01-2015,12:00,0.72281,R,ugm-3,3.68634,R,ugm-3,4.79464,R,ugm-3,71.49595,R,ugm-3
02-01-2015,13:00,0.51015,R,ugm-3,3.94788,R,ugm-3,4.73009,R,ugm-3,71.29638,R,ugm-3
02-01-2015,14:00,0.51015,R,ugm-3,3.88238,R,ugm-3,4.66459,R,ugm-3,72.04477,R,ugm-3
02-01-2015,15:00,0.59496,R,ugm-3,3.49318,R,ugm-3,4.40544,R,ugm-3,72.94284,R,ugm-3
02-01-2015,16:00,0.55255,R,ugm-3,5.43724,R,ugm-3,6.28448,R,ugm-3,70.24864,R,ugm-3
02-01-2015,17:00,0.46774,R,ugm-3,7.83408,R,ugm-3,8.55127,R,ugm-3,56.77767,R,ugm-3
02-01-2015,18:00,0.46774,R,ugm-3,5.76093,R,ugm-3,6.47812,R,ugm-3,60.71917,R,ugm-3
02-01-2015,19:00,0.38292,R,ugm-3,4.27253,R,ugm-3,4.85966,R,ugm-3,61.16821,R,ugm-3
02-01-2015,20:00,0.34051,R,ugm-3,4.46664,R,ugm-3,4.98876,R,ugm-3,59.02283,R,ugm-3
02-01-2015,21:00,0.34051,R,ugm-3,3.29954,R,ugm-3,3.82165,R,ugm-3,62.61509,R,ugm-3
02-01-2015,22:00,0.25507,R,ugm-3,3.04327,R,ugm-3,3.43437,R,ugm-3,60.61939,R,ugm-3
02-01-2015,23:00,0.21235,R,ugm-3,3.10829,R,ugm-3,3.43389,R,ugm-3,58.17466,R,ugm-3
02-01-2015,24:00,0.25507,R,ugm-3,2.32943,R,ugm-3,2.72053,R,ugm-3,61.91659,R,ugm-3
03-01-2015,01:00,0.45319,R,ugm-3,2.41485,R,ugm-3,3.10973,R,ugm-3,64.59416,R,ugm-3
03-01-2015,02:00,0.56627,R,ugm-3,3.45079,R,ugm-3,4.31906,R,ugm-3,64.12849,R,ugm-3
03-01-2015,03:00,0.29686,R,ugm-3,3.30289,R,ugm-3,3.75806,R,ugm-3,68.50240,R,ugm-3
03-01-2015,04:00,0.38199,R,ugm-3,1.94167,R,ugm-3,2.52737,R,ugm-3,74.04047,R,ugm-3
03-01-2015,05:00,0.42471,R,ugm-3,3.30050,R,ugm-3,3.95170,R,ugm-3,57.82541,R,ugm-3
03-01-2015,06:00,0.29686,R,ugm-3,4.79225,R,ugm-3,5.24742,R,ugm-3,61.11831,R,ugm-3
03-01-2015,07:00,0.29686,R,ugm-3,3.82022,R,ugm-3,4.27539,R,ugm-3,63.41337,R,ugm-3
03-01-2015,08:00,0.38199,R,ugm-3,3.49605,R,ugm-3,4.08175,R,ugm-3,60.71917,R,ugm-3
03-01-2015,09:00,0.50983,R,ugm-3,5.11307,R,ugm-3,5.89480,R,ugm-3,55.77982,R,ugm-3
03-01-2015,10:00,0.55224,R,ugm-3,7.44632,R,ugm-3,8.29308,R,ugm-3,52.98584,R,ugm-3
03-01-2015,11:00,0.67978,R,ugm-3,10.48911,R,ugm-3,11.53142,R,ugm-3,51.48906,R,ugm-3
03-01-2015,12:00,0.76460,R,ugm-3,10.55365,R,ugm-3,11.72602,R,ugm-3,57.27659,R,ugm-3
03-01-2015,13:00,0.76460,R,ugm-3,7.83264,R,ugm-3,9.00501,R,ugm-3,60.61939,R,ugm-3
03-01-2015,14:00,1.14689,R,ugm-3,13.14222,R,ugm-3,14.90077,R,ugm-3,50.84046,R,ugm-3
03-01-2015,15:00,1.31653,R,ugm-3,16.18644,R,ugm-3,18.20509,R,ugm-3,47.29809,R,ugm-3
03-01-2015,16:00,0.84941,R,ugm-3,13.08007,R,ugm-3,14.38248,R,ugm-3,55.68003,R,ugm-3
03-01-2015,17:00,0.76460,R,ugm-3,14.50583,R,ugm-3,15.67820,R,ugm-3,54.18326,R,ugm-3
03-01-2015,18:00,0.59496,R,ugm-3,13.14605,R,ugm-3,14.05831,R,ugm-3,43.00734,R,ugm-3
03-01-2015,19:00,0.76460,R,ugm-3,13.72840,R,ugm-3,14.90077,R,ugm-3,45.70153,R,ugm-3
03-01-2015,20:00,0.72219,R,ugm-3,13.72936,R,ugm-3,14.83670,R,ugm-3,48.14626,R,ugm-3
03-01-2015,21:00,0.59496,R,ugm-3,12.23904,R,ugm-3,13.15131,R,ugm-3,46.15056,R,ugm-3
03-01-2015,22:00,0.63737,R,ugm-3,10.87830,R,ugm-3,11.85559,R,ugm-3,31.78152,R,ugm-3
03-01-2015,23:00,0.59496,R,ugm-3,8.41691,R,ugm-3,9.32918,R,ugm-3,26.54281,R,ugm-3
03-01-2015,24:00,1.40134,R,ugm-3,16.63923,R,ugm-3,18.78792,R,ugm-3,13.57076,R,ugm-3
04-01-2015,01:00,1.13213,R,ugm-3,15.70099,R,ugm-3,17.43690,R,ugm-3,8.04932,R,ugm-3
04-01-2015,02:00,1.07517,R,ugm-3,10.60864,R,ugm-3,12.25721,R,ugm-3,8.38194,R,ugm-3
04-01-2015,03:00,1.01873,R,ugm-3,9.83216,R,ugm-3,11.39420,R,ugm-3,8.13248,R,ugm-3
04-01-2015,04:00,0.80576,R,ugm-3,11.19386,R,ugm-3,12.42934,R,ugm-3,8.88087,R,ugm-3
04-01-2015,05:00,0.67853,R,ugm-3,9.64139,R,ugm-3,10.68179,R,ugm-3,10.12818,R,ugm-3
04-01-2015,06:00,0.59372,R,ugm-3,7.57015,R,ugm-3,8.48050,R,ugm-3,16.16517,R,ugm-3
04-01-2015,07:00,0.97601,R,ugm-3,12.22805,R,ugm-3,13.72458,R,ugm-3,14.51872,R,ugm-3
04-01-2015,08:00,0.59372,R,ugm-3,10.87161,R,ugm-3,11.78196,R,ugm-3,15.46668,R,ugm-3
04-01-2015,09:00,0.63612,R,ugm-3,8.47668,R,ugm-3,9.45205,R,ugm-3,18.01119,R,ugm-3
04-01-2015,10:00,1.35831,R,ugm-3,9.37603,R,ugm-3,11.45874,R,ugm-3,15.51657,R,ugm-3
04-01-2015,11:00,1.40072,R,ugm-3,9.31053,R,ugm-3,11.45827,R,ugm-3,20.35614,R,ugm-3
04-01-2015,12:00,4.24394,R,ugm-3,16.34518,R,ugm-3,22.85246,R,ugm-3,15.91571,R,ugm-3
04-01-2015,13:00,2.20710,R,ugm-3,12.73582,R,ugm-3,16.11998,R,ugm-3,19.00904,R,ugm-3
04-01-2015,14:00,0.63644,R,ugm-3,8.47620,R,ugm-3,9.45205,R,ugm-3,31.48217,R,ugm-3
04-01-2015,15:00,1.35769,R,ugm-3,9.95982,R,ugm-3,12.04158,R,ugm-3,27.54066,R,ugm-3
04-01-2015,16:00,0.89120,R,ugm-3,10.15681,R,ugm-3,11.52329,R,ugm-3,20.85507,R,ugm-3
04-01-2015,17:00,0.93360,R,ugm-3,10.93328,R,ugm-3,12.36479,R,ugm-3,15.26711,R,ugm-3
04-01-2015,18:00,1.48522,R,ugm-3,15.26653,R,ugm-3,17.54384,R,ugm-3,10.17807,R,ugm-3
04-01-2015,19:00,1.06114,R,ugm-3,14.55747,R,ugm-3,16.18453,R,ugm-3,12.17377,R,ugm-3
04-01-2015,20:00,0.80576,R,ugm-3,10.54696,R,ugm-3,11.78243,R,ugm-3,23.39958,R,ugm-3
04-01-2015,21:00,2.92835,R,ugm-3,16.87399,R,ugm-3,21.36406,R,ugm-3,14.01979,R,ugm-3
04-01-2015,22:00,3.01317,R,ugm-3,17.71405,R,ugm-3,22.33418,R,ugm-3,13.72044,R,ugm-3
04-01-2015,23:00,2.88594,R,ugm-3,16.29163,R,ugm-3,20.71668,R,ugm-3,13.96990,R,ugm-3
04-01-2015,24:00,0.50890,R,ugm-3,11.51994,R,ugm-3,12.30024,R,ugm-3,20.35614,R,ugm-3
05-01-2015,01:00,0.73508,R,ugm-3,10.25865,R,ugm-3,11.38575,R,ugm-3,23.68231,R,ugm-3
05-01-2015,02:00,0.67853,R,ugm-3,8.27539,R,ugm-3,9.31579,R,ugm-3,28.93765,R,ugm-3
05-01-2015,03:00,0.59372,R,ugm-3,6.85249,R,ugm-3,7.76284,R,ugm-3,36.42153,R,ugm-3
05-01-2015,04:00,0.63612,R,ugm-3,5.62275,R,ugm-3,6.59813,R,ugm-3,34.47572,R,ugm-3
05-01-2015,05:00,0.59372,R,ugm-3,6.33468,R,ugm-3,7.24503,R,ugm-3,26.39313,R,ugm-3
05-01-2015,06:00,0.84816,R,ugm-3,10.34376,R,ugm-3,11.64426,R,ugm-3,21.00474,R,ugm-3
05-01-2015,07:00,2.79894,R,ugm-3,14.53357,R,ugm-3,18.82522,R,ugm-3,13.27141,R,ugm-3
05-01-2015,08:00,11.49262,R,ugm-3,23.78003,R,ugm-3,41.40180,R,ugm-3,3.44258,R,ugm-3
05-01-2015,09:00,31.67893,R,ugm-3,27.76089,R,ugm-3,76.33457,R,ugm-3,1.89592,R,ugm-3
05-01-2015,10:00,62.59450,R,ugm-3,30.10418,R,ugm-3,126.08108,R,ugm-3,1.89592,R,ugm-3
05-01-2015,11:00,66.15679,R,ugm-3,28.91174,R,ugm-3,130.35074,R,ugm-3,2.54452,R,ugm-3
05-01-2015,12:00,43.29877,R,ugm-3,27.21583,R,ugm-3,93.60636,R,ugm-3,5.73764,R,ugm-3
05-01-2015,13:00,11.36540,R,ugm-3,18.67078,R,ugm-3,36.09748,R,ugm-3,28.33894,R,ugm-3
05-01-2015,14:00,2.71413,R,ugm-3,13.49890,R,ugm-3,17.66050,R,ugm-3,38.11787,R,ugm-3
05-01-2015,15:00,0.97539,R,ugm-3,9.63135,R,ugm-3,11.12693,R,ugm-3,45.30239,R,ugm-3
05-01-2015,16:00,0.72094,R,ugm-3,8.27491,R,ugm-3,9.38033,R,ugm-3,51.68863,R,ugm-3
05-01-2015,17:00,0.63612,R,ugm-3,9.89241,R,ugm-3,10.86778,R,ugm-3,51.38928,R,ugm-3
05-01-2015,18:00,0.97539,R,ugm-3,18.23521,R,ugm-3,19.73078,R,ugm-3,32.08088,R,ugm-3
05-01-2015,19:00,0.84816,R,ugm-3,23.67006,R,ugm-3,24.97056,R,ugm-3,28.53851,R,ugm-3
05-01-2015,20:00,0.76335,R,ugm-3,14.87351,R,ugm-3,16.04396,R,ugm-3,41.85981,R,ugm-3
05-01-2015,21:00,0.46649,R,ugm-3,10.47620,R,ugm-3,11.19147,R,ugm-3,47.39788,R,ugm-3
05-01-2015,22:00,0.55131,R,ugm-3,8.08223,R,ugm-3,8.92755,R,ugm-3,50.99014,R,ugm-3
05-01-2015,23:00,0.55131,R,ugm-3,7.43484,R,ugm-3,8.28017,R,ugm-3,53.58455,R,ugm-3
05-01-2015,24:00,0.50890,R,ugm-3,6.20606,R,ugm-3,6.98636,R,ugm-3,53.88390,R,ugm-3
06-01-2015,01:00,0.33927,R,ugm-3,4.56896,R,ugm-3,5.08916,R,ugm-3,56.47831,R,ugm-3
06-01-2015,02:00,0.73466,R,ugm-3,3.44505,R,ugm-3,4.57151,R,ugm-3,60.07057,R,ugm-3
06-01-2015,03:00,0.38167,R,ugm-3,4.13722,R,ugm-3,4.72244,R,ugm-3,54.08347,R,ugm-3
06-01-2015,04:00,0.42408,R,ugm-3,5.17188,R,ugm-3,5.82213,R,ugm-3,47.54755,R,ugm-3
06-01-2015,05:00,0.38167,R,ugm-3,3.87855,R,ugm-3,4.46378,R,ugm-3,54.28304,R,ugm-3
06-01-2015,06:00,0.38167,R,ugm-3,4.78364,R,ugm-3,5.36887,R,ugm-3,49.34368,R,ugm-3
06-01-2015,07:00,0.46649,R,ugm-3,4.97728,R,ugm-3,5.69256,R,ugm-3,49.19401,R,ugm-3
06-01-2015,08:00,2.03403,R,ugm-3,15.70593,R,ugm-3,18.82474,R,ugm-3,29.83572,R,ugm-3
06-01-2015,09:00,1.05989,R,ugm-3,13.44774,R,ugm-3,15.07289,R,ugm-3,44.80347,R,ugm-3
06-01-2015,10:00,0.67853,R,ugm-3,7.17522,R,ugm-3,8.21562,R,ugm-3,62.71487,R,ugm-3
06-01-2015,11:00,0.55131,R,ugm-3,5.88237,R,ugm-3,6.72770,R,ugm-3,68.95144,R,ugm-3
06-01-2015,12:00,0.55131,R,ugm-3,5.88237,R,ugm-3,6.72770,R,ugm-3,69.10111,R,ugm-3
06-01-2015,13:00,0.59372,R,ugm-3,5.68778,R,ugm-3,6.59813,R,ugm-3,68.80176,R,ugm-3
06-01-2015,14:00,0.84785,R,ugm-3,5.75089,R,ugm-3,7.05091,R,ugm-3,67.20520,R,ugm-3
06-01-2015,15:00,0.89026,R,ugm-3,5.87950,R,ugm-3,7.24455,R,ugm-3,65.35918,R,ugm-3
06-01-2015,16:00,0.93267,R,ugm-3,12.73773,R,ugm-3,14.16780,R,ugm-3,51.33938,R,ugm-3
06-01-2015,17:00,1.99194,R,ugm-3,19.58735,R,ugm-3,22.64161,R,ugm-3,37.31959,R,ugm-3
06-01-2015,18:00,1.27131,R,ugm-3,15.90483,R,ugm-3,17.85414,R,ugm-3,44.10497,R,ugm-3
06-01-2015,19:00,0.80544,R,ugm-3,14.80801,R,ugm-3,16.04301,R,ugm-3,38.71658,R,ugm-3
06-01-2015,20:00,0.72063,R,ugm-3,10.47428,R,ugm-3,11.57923,R,ugm-3,43.65594,R,ugm-3
06-01-2015,21:00,0.76272,R,ugm-3,13.32152,R,ugm-3,14.49101,R,ugm-3,35.02454,R,ugm-3
06-01-2015,22:00,1.18649,R,ugm-3,23.53905,R,ugm-3,25.35832,R,ugm-3,14.56861,R,ugm-3
06-01-2015,23:00,2.03403,R,ugm-3,24.95669,R,ugm-3,28.07550,R,ugm-3,13.47098,R,ugm-3
06-01-2015,24:00,0.93236,R,ugm-3,16.03679,R,ugm-3,17.46638,R,ugm-3,24.29765,R,ugm-3
07-01-2015,01:00,0.67728,R,ugm-3,16.45770,R,ugm-3,17.49619,R,ugm-3,25.34539,R,ugm-3
07-01-2015,02:00,0.79037,R,ugm-3,8.61326,R,ugm-3,9.82515,R,ugm-3,27.34109,R,ugm-3
07-01-2015,03:00,0.76210,R,ugm-3,8.78650,R,ugm-3,9.95504,R,ugm-3,24.94625,R,ugm-3
07-01-2015,04:00,0.71969,R,ugm-3,8.33468,R,ugm-3,9.43819,R,ugm-3,33.87701,R,ugm-3
07-01-2015,05:00,0.59247,R,ugm-3,8.33563,R,ugm-3,9.24407,R,ugm-3,40.96174,R,ugm-3
07-01-2015,06:00,0.63488,R,ugm-3,11.50273,R,ugm-3,12.47619,R,ugm-3,32.03099,R,ugm-3
07-01-2015,07:00,0.67728,R,ugm-3,8.01146,R,ugm-3,9.04995,R,ugm-3,43.00734,R,ugm-3
07-01-2015,08:00,1.73624,R,ugm-3,13.11019,R,ugm-3,15.77239,R,ugm-3,41.26110,R,ugm-3
07-01-2015,09:00,1.52451,R,ugm-3,14.59859,R,ugm-3,16.93614,R,ugm-3,43.75572,R,ugm-3
07-01-2015,10:00,0.93142,R,ugm-3,11.43579,R,ugm-3,12.86395,R,ugm-3,52.18756,R,ugm-3
07-01-2015,11:00,0.50796,R,ugm-3,6.72005,R,ugm-3,7.49891,R,ugm-3,63.16391,R,ugm-3
07-01-2015,12:00,0.50796,R,ugm-3,4.58618,R,ugm-3,5.36504,R,ugm-3,65.45896,R,ugm-3
07-01-2015,13:00,0.46556,R,ugm-3,4.13483,R,ugm-3,4.84867,R,ugm-3,68.40262,R,ugm-3
07-01-2015,14:00,0.50765,R,ugm-3,3.94118,R,ugm-3,4.71957,R,ugm-3,69.40047,R,ugm-3
07-01-2015,15:00,0.50796,R,ugm-3,4.84484,R,ugm-3,5.62371,R,ugm-3,66.30713,R,ugm-3
07-01-2015,16:00,0.50828,R,ugm-3,4.71479,R,ugm-3,5.49413,R,ugm-3,66.20735,R,ugm-3
07-01-2015,17:00,0.38136,R,ugm-3,5.03848,R,ugm-3,5.62323,R,ugm-3,67.20520,R,ugm-3
07-01-2015,18:00,0.46556,R,ugm-3,5.36265,R,ugm-3,6.07649,R,ugm-3,65.90799,R,ugm-3
07-01-2015,19:00,0.38136,R,ugm-3,5.23308,R,ugm-3,5.81783,R,ugm-3,64.96004,R,ugm-3
07-01-2015,20:00,0.46556,R,ugm-3,4.13435,R,ugm-3,4.84819,R,ugm-3,69.20090,R,ugm-3
07-01-2015,21:00,0.42346,R,ugm-3,3.74611,R,ugm-3,4.39540,R,ugm-3,70.14886,R,ugm-3
07-01-2015,22:00,0.29686,R,ugm-3,3.68156,R,ugm-3,4.13674,R,ugm-3,69.84950,R,ugm-3
07-01-2015,23:00,0.38136,R,ugm-3,2.71193,R,ugm-3,3.29667,R,ugm-3,74.63918,R,ugm-3
07-01-2015,24:00,0.42346,R,ugm-3,2.32369,R,ugm-3,2.97298,R,ugm-3,74.24004,R,ugm-3
08-01-2015,01:00,0.33927,R,ugm-3,2.49581,R,ugm-3,3.01601,R,ugm-3,72.37739,R,ugm-3
08-01-2015,02:00,0.67728,R,ugm-3,2.15029,R,ugm-3,3.18878,R,ugm-3,72.24434,R,ugm-3
08-01-2015,03:00,0.50796,R,ugm-3,2.32369,R,ugm-3,3.10255,R,ugm-3,78.58069,R,ugm-3
08-01-2015,04:00,0.33895,R,ugm-3,2.19507,R,ugm-3,2.71479,R,ugm-3,79.07961,R,ugm-3
08-01-2015,05:00,0.42346,R,ugm-3,2.32369,R,ugm-3,2.97298,R,ugm-3,78.08176,R,ugm-3
08-01-2015,06:00,0.33927,R,ugm-3,2.45326,R,ugm-3,2.97346,R,ugm-3,77.38327,R,ugm-3
08-01-2015,07:00,0.50796,R,ugm-3,2.84102,R,ugm-3,3.61988,R,ugm-3,72.79316,R,ugm-3
08-01-2015,08:00,0.50765,R,ugm-3,3.87520,R,ugm-3,4.65359,R,ugm-3,73.84090,R,ugm-3
08-01-2015,09:00,0.59278,R,ugm-3,7.36504,R,ugm-3,8.27395,R,ugm-3,61.56735,R,ugm-3
08-01-2015,10:00,0.67728,R,ugm-3,12.01911,R,ugm-3,13.05759,R,ugm-3,57.72562,R,ugm-3
08-01-2015,11:00,0.93173,R,ugm-3,12.08126,R,ugm-3,13.50990,R,ugm-3,53.28519,R,ugm-3
08-01-2015,12:00,1.01655,R,ugm-3,7.49174,R,ugm-3,9.05043,R,ugm-3,61.96649,R,ugm-3
08-01-2015,13:00,0.63488,R,ugm-3,4.52115,R,ugm-3,5.49461,R,ugm-3,67.30498,R,ugm-3
08-01-2015,14:00,0.55006,R,ugm-3,4.06932,R,ugm-3,4.91273,R,ugm-3,69.55015,R,ugm-3
08-01-2015,15:00,0.50796,R,ugm-3,4.52163,R,ugm-3,5.30049,R,ugm-3,68.60219,R,ugm-3
08-01-2015,16:00,0.59247,R,ugm-3,4.97393,R,ugm-3,5.88237,R,ugm-3,67.95359,R,ugm-3
08-01-2015,17:00,0.71969,R,ugm-3,6.78316,R,ugm-3,7.88667,R,ugm-3,63.26369,R,ugm-3
08-01-2015,18:00,0.63488,R,ugm-3,10.66267,R,ugm-3,11.63613,R,ugm-3,51.53895,R,ugm-3
08-01-2015,19:00,0.38136,R,ugm-3,5.87998,R,ugm-3,6.46473,R,ugm-3,57.17681,R,ugm-3
08-01-2015,20:00,0.38136,R,ugm-3,3.74611,R,ugm-3,4.33086,R,ugm-3,63.96219,R,ugm-3
08-01-2015,21:00,0.38136,R,ugm-3,3.22926,R,ugm-3,3.81400,R,ugm-3,68.75187,R,ugm-3
08-01-2015,22:00,0.42346,R,ugm-3,2.19507,R,ugm-3,2.84437,R,ugm-3,74.73897,R,ugm-3
08-01-2015,23:00,0.29686,R,ugm-3,1.67870,R,ugm-3,2.13387,R,ugm-3,80.27703,R,ugm-3
08-01-2015,24:00,0.33927,R,ugm-3,1.80731,R,ugm-3,2.32751,R,ugm-3,83.47015,R,ugm-3
09-01-2015,01:00,0.16963,R,ugm-3,1.97944,R,ugm-3,2.23954,R,ugm-3,80.62628,R,ugm-3
09-01-2015,02:00,0.50765,R,ugm-3,2.06359,R,ugm-3,2.84198,R,ugm-3,76.90097,R,ugm-3
09-01-2015,03:00,0.38043,R,ugm-3,1.80683,R,ugm-3,2.39015,R,ugm-3,80.77596,R,ugm-3
09-01-2015,04:00,0.21173,R,ugm-3,1.93641,R,ugm-3,2.26105,R,ugm-3,80.52650,R,ugm-3
09-01-2015,05:00,0.21142,R,ugm-3,1.93688,R,ugm-3,2.26105,R,ugm-3,76.93424,R,ugm-3
09-01-2015,06:00,0.33802,R,ugm-3,2.06550,R,ugm-3,2.58379,R,ugm-3,75.23789,R,ugm-3
09-01-2015,07:00,0.33833,R,ugm-3,2.58188,R,ugm-3,3.10064,R,ugm-3,72.29423,R,ugm-3
09-01-2015,08:00,0.50765,R,ugm-3,4.45373,R,ugm-3,5.23212,R,ugm-3,68.05337,R,ugm-3
09-01-2015,09:00,0.71938,R,ugm-3,9.29714,R,ugm-3,10.40018,R,ugm-3,60.36993,R,ugm-3
09-01-2015,10:00,0.80357,R,ugm-3,10.20128,R,ugm-3,11.43340,R,ugm-3,56.17896,R,ugm-3
09-01-2015,11:00,0.71938,R,ugm-3,4.45182,R,ugm-3,5.55486,R,ugm-3,67.75402,R,ugm-3
09-01-2015,12:00,1.10012,R,ugm-3,6.77503,R,ugm-3,8.46186,R,ugm-3,67.50455,R,ugm-3
09-01-2015,13:00,0.93049,R,ugm-3,6.13148,R,ugm-3,7.55820,R,ugm-3,69.94929,R,ugm-3
09-01-2015,14:00,0.46524,R,ugm-3,3.93784,R,ugm-3,4.65120,R,ugm-3,71.74542,R,ugm-3
09-01-2015,15:00,0.88839,R,ugm-3,4.96820,R,ugm-3,6.33038,R,ugm-3,65.75832,R,ugm-3
09-01-2015,16:00,0.93049,R,ugm-3,4.83910,R,ugm-3,6.26583,R,ugm-3,62.21595,R,ugm-3
09-01-2015,17:00,0.50765,R,ugm-3,3.80827,R,ugm-3,4.58665,R,ugm-3,61.16821,R,ugm-3
09-01-2015,18:00,0.46524,R,ugm-3,3.22639,R,ugm-3,3.93975,R,ugm-3,61.41767,R,ugm-3
09-01-2015,19:00,0.42284,R,ugm-3,3.22687,R,ugm-3,3.87520,R,ugm-3,60.91874,R,ugm-3
09-01-2015,20:00,0.33833,R,ugm-3,3.09777,R,ugm-3,3.61654,R,ugm-3,62.96434,R,ugm-3
09-01-2015,21:00,0.38043,R,ugm-3,2.96868,R,ugm-3,3.55199,R,ugm-3,62.81466,R,ugm-3
09-01-2015,22:00,0.33833,R,ugm-3,2.77504,R,ugm-3,3.29380,R,ugm-3,64.86025,R,ugm-3
09-01-2015,23:00,0.38074,R,ugm-3,2.64547,R,ugm-3,3.22926,R,ugm-3,65.80821,R,ugm-3
09-01-2015,24:00,0.25383,R,ugm-3,2.32369,R,ugm-3,2.71288,R,ugm-3,67.05552,R,ugm-3
10-01-2015,01:00,0.45111,R,ugm-3,2.15029,R,ugm-3,2.84198,R,ugm-3,67.45466,R,ugm-3
10-01-2015,02:00,0.50765,R,ugm-3,1.80540,R,ugm-3,2.58379,R,ugm-3,68.18642,R,ugm-3
10-01-2015,03:00,0.33802,R,ugm-3,1.93641,R,ugm-3,2.45469,R,ugm-3,69.74972,R,ugm-3
10-01-2015,04:00,0.33802,R,ugm-3,1.87186,R,ugm-3,2.39015,R,ugm-3,70.69767,R,ugm-3
10-01-2015,05:00,0.33833,R,ugm-3,1.87138,R,ugm-3,2.39015,R,ugm-3,70.89724,R,ugm-3
10-01-2015,06:00,0.38043,R,ugm-3,1.80683,R,ugm-3,2.39015,R,ugm-3,70.54800,R,ugm-3
10-01-2015,07:00,0.25383,R,ugm-3,2.06550,R,ugm-3,2.45469,R,ugm-3,70.39832,R,ugm-3
10-01-2015,08:00,0.38074,R,ugm-3,2.19364,R,ugm-3,2.77743,R,ugm-3,69.00133,R,ugm-3
10-01-2015,09:00,0.38074,R,ugm-3,2.58092,R,ugm-3,3.16471,R,ugm-3,76.38542,R,ugm-3
10-01-2015,10:00,0.38074,R,ugm-3,2.64547,R,ugm-3,3.22926,R,ugm-3,80.97553,R,ugm-3
10-01-2015,11:00,0.46524,R,ugm-3,2.96772,R,ugm-3,3.68108,R,ugm-3,77.63273,R,ugm-3
10-01-2015,12:00,0.54975,R,ugm-3,3.29141,R,ugm-3,4.13435,R,ugm-3,75.48735,R,ugm-3
10-01-2015,13:00,0.54975,R,ugm-3,2.83815,R,ugm-3,3.68108,R,ugm-3,76.03617,R,ugm-3
10-01-2015,14:00,0.54975,R,ugm-3,2.70906,R,ugm-3,3.55199,R,ugm-3,77.63273,R,ugm-3
10-01-2015,15:00,0.54975,R,ugm-3,2.96724,R,ugm-3,3.81018,R,ugm-3,75.33768,R,ugm-3
10-01-2015,16:00,0.42284,R,ugm-3,3.87377,R,ugm-3,4.52211,R,ugm-3,74.14026,R,ugm-3
10-01-2015,17:00,0.50734,R,ugm-3,5.10016,R,ugm-3,5.87807,R,ugm-3,69.84950,R,ugm-3
10-01-2015,18:00,0.33833,R,ugm-3,4.13196,R,ugm-3,4.65072,R,ugm-3,71.54585,R,ugm-3
10-01-2015,19:00,0.29592,R,ugm-3,3.35692,R,ugm-3,3.81066,R,ugm-3,72.79316,R,ugm-3
10-01-2015,20:00,0.33802,R,ugm-3,2.77552,R,ugm-3,3.29380,R,ugm-3,66.95574,R,ugm-3
10-01-2015,21:00,0.38043,R,ugm-3,2.90413,R,ugm-3,3.48744,R,ugm-3,64.31143,R,ugm-3
10-01-2015,22:00,0.38043,R,ugm-3,2.19412,R,ugm-3,2.77743,R,ugm-3,71.64563,R,ugm-3
10-01-2015,23:00,0.38043,R,ugm-3,1.87138,R,ugm-3,2.45469,R,ugm-3,66.50670,R,ugm-3
10-01-2015,24:00,0.29592,R,ugm-3,1.67822,R,ugm-3,2.13196,R,ugm-3,62.76477,R,ugm-3
11-01-2015,01:00,0.33802,R,ugm-3,1.46115,R,ugm-3,1.97944,R,ugm-3,69.78298,R,ugm-3
11-01-2015,02:00,0.45069,R,ugm-3,1.11626,R,ugm-3,1.80731,R,ugm-3,74.97180,R,ugm-3
11-01-2015,03:00,0.46431,R,ugm-3,1.09538,R,ugm-3,1.80731,R,ugm-3,76.88434,R,ugm-3
11-01-2015,04:00,0.25383,R,ugm-3,1.35357,R,ugm-3,1.74277,R,ugm-3,77.08391,R,ugm-3
11-01-2015,05:00,0.33802,R,ugm-3,1.86995,R,ugm-3,2.38823,R,ugm-3,74.48950,R,ugm-3
11-01-2015,06:00,0.33802,R,ugm-3,1.67631,R,ugm-3,2.19459,R,ugm-3,74.38972,R,ugm-3
11-01-2015,07:00,0.50640,R,ugm-3,1.48267,R,ugm-3,2.25914,R,ugm-3,74.43961,R,ugm-3
11-01-2015,08:00,0.33802,R,ugm-3,1.86995,R,ugm-3,2.38823,R,ugm-3,74.73897,R,ugm-3
11-01-2015,09:00,0.38012,R,ugm-3,2.12813,R,ugm-3,2.71097,R,ugm-3,72.79316,R,ugm-3
11-01-2015,10:00,0.42252,R,ugm-3,1.99856,R,ugm-3,2.64642,R,ugm-3,72.84305,R,ugm-3
11-01-2015,11:00,0.46431,R,ugm-3,1.86995,R,ugm-3,2.58188,R,ugm-3,72.64348,R,ugm-3
11-01-2015,12:00,0.46431,R,ugm-3,1.93449,R,ugm-3,2.64642,R,ugm-3,68.00348,R,ugm-3
11-01-2015,13:00,0.33802,R,ugm-3,1.80540,R,ugm-3,2.32369,R,ugm-3,71.64563,R,ugm-3
11-01-2015,14:00,0.38012,R,ugm-3,2.06359,R,ugm-3,2.64642,R,ugm-3,72.29423,R,ugm-3
11-01-2015,15:00,0.46431,R,ugm-3,1.80540,R,ugm-3,2.51733,R,ugm-3,73.99058,R,ugm-3
11-01-2015,16:00,0.42221,R,ugm-3,1.93449,R,ugm-3,2.58188,R,ugm-3,75.13811,R,ugm-3
11-01-2015,17:00,0.42221,R,ugm-3,1.99904,R,ugm-3,2.64642,R,ugm-3,76.08606,R,ugm-3
11-01-2015,18:00,0.38012,R,ugm-3,2.12813,R,ugm-3,2.71097,R,ugm-3,76.88434,R,ugm-3
11-01-2015,19:00,0.42221,R,ugm-3,1.74085,R,ugm-3,2.38823,R,ugm-3,77.43316,R,ugm-3
11-01-2015,20:00,0.29592,R,ugm-3,1.99904,R,ugm-3,2.45278,R,ugm-3,77.88219,R,ugm-3
11-01-2015,21:00,0.38012,R,ugm-3,1.74085,R,ugm-3,2.32369,R,ugm-3,76.13596,R,ugm-3
11-01-2015,22:00,0.46431,R,ugm-3,1.61176,R,ugm-3,2.32369,R,ugm-3,77.28348,R,ugm-3
11-01-2015,23:00,0.42221,R,ugm-3,1.22448,R,ugm-3,1.87186,R,ugm-3,79.72822,R,ugm-3
11-01-2015,24:00,0.29592,R,ugm-3,1.03084,R,ugm-3,1.48458,R,ugm-3,81.42456,R,ugm-3
12-01-2015,01:00,0.33802,R,ugm-3,1.02893,R,ugm-3,1.54721,R,ugm-3,81.95675,R,ugm-3
12-01-2015,02:00,0.50682,R,ugm-3,0.68404,R,ugm-3,1.46115,R,ugm-3,84.08549,R,ugm-3
12-01-2015,03:00,0.38012,R,ugm-3,0.83528,R,ugm-3,1.41812,R,ugm-3,86.31403,R,ugm-3
12-01-2015,04:00,0.29561,R,ugm-3,0.83576,R,ugm-3,1.28903,R,ugm-3,85.46585,R,ugm-3
12-01-2015,05:00,0.29561,R,ugm-3,0.90031,R,ugm-3,1.35357,R,ugm-3,84.26843,R,ugm-3
12-01-2015,06:00,0.42221,R,ugm-3,0.96438,R,ugm-3,1.61176,R,ugm-3,85.06671,R,ugm-3
12-01-2015,07:00,0.33802,R,ugm-3,1.09347,R,ugm-3,1.61176,R,ugm-3,86.41381,R,ugm-3
12-01-2015,08:00,0.38012,R,ugm-3,1.80349,R,ugm-3,2.38632,R,ugm-3,84.51790,R,ugm-3
12-01-2015,09:00,0.46462,R,ugm-3,3.15754,R,ugm-3,3.86994,R,ugm-3,79.92779,R,ugm-3
12-01-2015,10:00,0.63332,R,ugm-3,4.57566,R,ugm-3,5.54673,R,ugm-3,75.43746,R,ugm-3
12-01-2015,11:00,0.38012,R,ugm-3,3.22304,R,ugm-3,3.80588,R,ugm-3,72.94284,R,ugm-3
12-01-2015,12:00,0.38012,R,ugm-3,2.64260,R,ugm-3,3.22543,R,ugm-3,73.64133,R,ugm-3
12-01-2015,13:00,0.50640,R,ugm-3,2.64260,R,ugm-3,3.41907,R,ugm-3,74.19015,R,ugm-3
12-01-2015,14:00,0.46431,R,ugm-3,3.41620,R,ugm-3,4.12813,R,ugm-3,70.99703,R,ugm-3
12-01-2015,15:00,0.46431,R,ugm-3,5.47979,R,ugm-3,6.19172,R,ugm-3,69.94929,R,ugm-3
12-01-2015,16:00,0.80233,R,ugm-3,9.60505,R,ugm-3,10.83527,R,ugm-3,63.86240,R,ugm-3
12-01-2015,17:00,0.54881,R,ugm-3,10.12334,R,ugm-3,10.96484,R,ugm-3,57.67573,R,ugm-3
12-01-2015,18:00,0.54881,R,ugm-3,10.31746,R,ugm-3,11.15896,R,ugm-3,50.34153,R,ugm-3
12-01-2015,19:00,0.50672,R,ugm-3,6.64020,R,ugm-3,7.41715,R,ugm-3,57.32648,R,ugm-3
12-01-2015,20:00,0.50672,R,ugm-3,11.67103,R,ugm-3,12.44798,R,ugm-3,43.70583,R,ugm-3
12-01-2015,21:00,0.46431,R,ugm-3,6.31890,R,ugm-3,7.03083,R,ugm-3,52.38713,R,ugm-3
12-01-2015,22:00,0.50672,R,ugm-3,7.47883,R,ugm-3,8.25578,R,ugm-3,46.20046,R,ugm-3
12-01-2015,23:00,0.46431,R,ugm-3,7.09251,R,ugm-3,7.80443,R,ugm-3,40.56260,R,ugm-3